Precipitable_Water
1.00 1.00 0.97 0.94 0.93 0.93 0.92 0.90 0.91 0.89 0.91 0.89 0.84 0.79 0.75 0.73 0.74 0.75 0.70 0.70 0.62 0.61 0.66 0.72 0.77 0.81 0.81 0.84 0.93 1.05 1.16 1.20 1.28 1.37 1.42 1.46 1.45 1.44 1.43 1.41 1.35 1.23 1.18
0.95 0.94 0.92 0.89 0.88 0.88 0.88 0.84 0.81 0.81 0.81 0.79 0.76 0.75 0.70 0.65 0.66 0.74 0.66 0.68 0.66 0.59 0.63 0.65 0.68 0.71 0.75 0.79 0.82 0.87 0.96 1.02 1.06 1.22 1.37 1.39 1.46 1.46 1.46 1.49 1.39 1.31 1.29
0.95 0.94 0.91 0.89 0.88 0.87 0.86 0.87 0.85 0.84 0.83 0.81 0.74 0.71 0.66 0.65 0.64 0.67 0.63 0.62 0.70 0.62 0.65 0.63 0.62 0.63 0.65 0.65 0.66 0.72 0.82 0.90 0.97 1.03 1.12 1.26 1.33 1.43 1.48 1.46 1.49 1.41 1.45
0.94 0.90 0.86 0.86 0.89 0.87 0.87 0.85 0.84 0.81 0.79 0.77 0.73 0.71 0.65 0.62 0.62 0.65 0.63 0.62 0.61 0.64 0.64 0.61 0.61 0.62 0.62 0.62 0.62 0.64 0.67 0.71 0.80 0.96 1.04 1.10 1.18 1.30 1.41 1.47 1.48 1.51 1.51
0.89 0.87 0.85 0.85 0.87 0.84 0.81 0.81 0.78 0.80 0.78 0.77 0.75 0.70 0.67 0.62 0.62 0.61 0.61 0.62 0.61 0.59 0.61 0.64 0.61 0.57 0.57 0.57 0.59 0.62 0.67 0.72 0.74 0.70 0.76 0.91 1.05 1.17 1.28 1.33 1.43 1.48 1.51
0.86 0.86 0.85 0.86 0.88 0.85 0.81 0.81 0.80 0.80 0.78 0.77 0.74 0.72 0.70 0.66 0.64 0.64 0.63 0.62 0.61 0.63 0.62 0.62 0.59 0.53 0.50 0.50 0.52 0.56 0.62 0.65 0.70 0.72 0.70 0.68 0.76 0.95 1.09 1.20 1.26 1.38 1.46
0.90 0.88 0.84 0.83 0.84 0.80 0.79 0.78 0.78 0.76 0.75 0.79 0.75 0.75 0.75 0.72 0.68 0.65 0.65 0.65 0.63 0.62 0.64 0.62 0.61 0.59 0.56 0.52 0.50 0.52 0.55 0.58 0.60 0.62 0.65 0.69 0.68 0.67 0.76 0.96 1.11 1.22 1.30
0.88 0.87 0.84 0.84 0.81 0.77 0.72 0.69 0.69 0.66 0.67 0.72 0.65 0.66 0.58 0.63 0.69 0.67 0.66 0.65 0.64 0.64 0.62 0.62 0.60 0.62 0.58 0.54 0.53 0.53 0.51 0.53 0.53 0.56 0.60 0.61 0.62 0.66 0.69 0.70 0.78 0.95 1.15
0.88 0.83 0.79 0.74 0.71 0.67 0.59 0.59 0.59 0.59 0.57 0.60 0.66 0.64 0.55 0.51 0.60 0.66 0.71 0.72 0.68 0.67 0.64 0.63 0.60 0.62 0.58 0.56 0.57 0.52 0.51 0.49 0.49 0.51 0.52 0.55 0.58 0.59 0.60 0.62 0.68 0.71 0.81
0.71 0.68 0.63 0.62 0.62 0.61 0.57 0.59 0.61 0.61 0.61 0.53 0.58 0.61 0.66 0.68 0.58 0.54 0.66 0.72 0.74 0.71 0.69 0.67 0.64 0.64 0.59 0.56 0.56 0.57 0.57 0.54 0.51 0.49 0.49 0.51 0.52 0.57 0.59 0.61 0.62 0.66 0.70
0.60 0.57 0.55 0.55 0.55 0.56 0.57 0.57 0.56 0.54 0.55 0.52 0.50 0.53 0.54 0.55 0.59 0.54 0.48 0.60 0.68 0.74 0.76 0.73 0.71 0.65 0.60 0.60 0.57 0.58 0.56 0.53 0.51 0.51 0.51 0.51 0.52 0.50 0.53 0.55 0.56 0.58 0.64
0.57 0.54 0.53 0.53 0.54 0.55 0.57 0.56 0.58 0.56 0.53 0.53 0.53 0.52 0.50 0.47 0.47 0.48 0.48 0.54 0.53 0.69 0.68 0.74 0.73 0.69 0.64 0.64 0.64 0.61 0.56 0.54 0.56 0.54 0.52 0.52 0.51 0.48 0.48 0.50 0.53 0.54 0.60
0.49 0.46 0.48 0.50 0.51 0.53 0.53 0.54 0.52 0.51 0.51 0.49 0.49 0.48 0.50 0.50 0.51 0.49 0.47 0.46 0.49 0.58 0.64 0.68 0.69 0.66 0.63 0.64 0.63 0.63 0.56 0.51 0.52 0.52 0.51 0.50 0.48 0.48 0.47 0.46 0.45 0.48 0.53
0.44 0.47 0.50 0.52 0.54 0.54 0.55 0.56 0.55 0.52 0.51 0.49 0.49 0.50 0.50 0.50 0.51 0.50 0.46 0.43 0.40 0.45 0.52 0.55 0.64 0.65 0.64 0.60 0.59 0.55 0.54 0.52 0.52 0.51 0.47 0.46 0.46 0.47 0.45 0.42 0.41 0.42 0.47
0.45 0.49 0.50 0.51 0.52 0.55 0.53 0.53 0.52 0.52 0.54 0.50 0.50 0.51 0.50 0.51 0.51 0.51 0.50 0.48 0.41 0.35 0.37 0.44 0.48 0.59 0.63 0.62 0.53 0.52 0.50 0.51 0.52 0.51 0.49 0.47 0.43 0.42 0.41 0.40 0.38 0.39 0.43
0.50 0.48 0.49 0.50 0.50 0.49 0.49 0.49 0.49 0.51 0.50 0.50 0.51 0.50 0.49 0.49 0.49 0.48 0.47 0.45 0.44 0.41 0.35 0.41 0.41 0.44 0.45 0.44 0.42 0.42 0.43 0.45 0.45 0.45 0.46 0.44 0.41 0.38 0.36 0.34 0.34 0.36 0.38
0.46 0.46 0.45 0.45 0.45 0.46 0.46 0.46 0.46 0.46 0.44 0.43 0.43 0.44 0.42 0.42 0.38 0.37 0.37 0.39 0.39 0.38 0.33 0.34 0.36 0.37 0.37 0.37 0.39 0.40 0.40 0.40 0.41 0.41 0.40 0.39 0.39 0.37 0.34 0.32 0.30 0.33 0.33
0.46 0.46 0.47 0.47 0.46 0.45 0.42 0.40 0.39 0.38 0.37 0.36 0.37 0.36 0.33 0.31 0.30 0.30 0.30 0.30 0.31 0.31 0.30 0.28 0.31 0.31 0.31 0.32 0.33 0.35 0.36 0.37 0.37 0.36 0.37 0.36 0.36 0.35 0.32 0.30 0.30 0.30 0.30
0.47 0.49 0.50 0.47 0.44 0.41 0.39 0.38 0.35 0.35 0.32 0.30 0.30 0.29 0.28 0.28 0.28 0.29 0.29 0.28 0.29 0.29 0.28 0.26 0.25 0.27 0.27 0.28 0.28 0.28 0.30 0.32 0.33 0.33 0.32 0.33 0.33 0.32 0.31 0.29 0.29 0.28 0.26
0.47 0.47 0.45 0.41 0.37 0.34 0.32 0.31 0.30 0.28 0.26 0.26 0.26 0.27 0.27 0.27 0.27 0.27 0.28 0.27 0.27 0.25 0.25 0.24 0.23 0.24 0.25 0.27 0.28 0.26 0.26 0.28 0.28 0.30 0.31 0.31 0.31 0.32 0.31 0.30 0.28 0.26 0.25
0.37 0.36 0.35 0.33 0.30 0.27 0.26 0.25 0.24 0.23 0.20 0.20 0.22 0.23 0.25 0.27 0.26 0.25 0.24 0.23 0.23 0.23 0.23 0.22 0.22 0.22 0.23 0.23 0.22 0.25 0.25 0.27 0.28 0.30 0.30 0.31 0.32 0.34 0.34 0.34 0.32 0.29 0.27
0.36 0.32 0.26 0.25 0.25 0.25 0.27 0.25 0.23 0.21 0.19 0.20 0.20 0.22 0.24 0.25 0.25 0.25 0.25 0.25 0.25 0.22 0.21 0.21 0.21 0.21 0.22 0.25 0.27 0.27 0.28 0.26 0.25 0.34 0.30 0.29 0.32 0.31 0.32 0.31 0.32 0.34 0.32
0.27 0.24 0.25 0.25 0.25 0.25 0.26 0.23 0.23 0.22 0.21 0.22 0.24 0.24 0.24 0.24 0.24 0.25 0.27 0.26 0.26 0.27 0.28 0.26 0.24 0.25 0.26 0.28 0.29 0.28 0.29 0.28 0.27 0.31 0.32 0.29 0.33 0.31 0.35 0.34 0.33 0.31 0.32
0.24 0.23 0.24 0.24 0.24 0.25 0.26 0.25 0.25 0.24 0.24 0.25 0.25 0.25 0.24 0.24 0.24 0.23 0.24 0.24 0.26 0.28 0.31 0.32 0.31 0.30 0.31 0.33 0.34 0.32 0.32 0.31 0.32 0.33 0.33 0.26 0.32 0.30 0.33 0.35 0.36 0.33 0.32
0.23 0.23 0.23 0.25 0.24 0.25 0.27 0.26 0.24 0.23 0.23 0.23 0.23 0.25 0.25 0.25 0.25 0.26 0.26 0.25 0.25 0.28 0.32 0.34 0.35 0.34 0.33 0.33 0.33 0.32 0.30 0.29 0.28 0.30 0.34 0.31 0.31 0.30 0.32 0.32 0.34 0.33 0.33
0.23 0.24 0.25 0.24 0.25 0.24 0.26 0.25 0.24 0.23 0.21 0.22 0.23 0.23 0.24 0.25 0.26 0.27 0.27 0.26 0.25 0.28 0.31 0.31 0.32 0.33 0.34 0.35 0.36 0.35 0.32 0.28 0.28 0.27 0.32 0.31 0.33 0.32 0.29 0.34 0.33 0.34 0.35
Wind_Speed
19 20 21 22 23 24 24 25 25 26 26 27 27 27 27 28 28 27 28 27 27 27 26 26 25 25 24 24 25 26 26 26 26 26 26 28 31 32 31 31 31 28 29
21 22 23 24 25 25 25 26 26 27 27 27 28 28 29 29 29 29 29 29 28 28 28 28 27 27 27 27 27 27 28 28 28 29 28 28 29 33 35 33 32 32 31
24 24 25 25 26 26 27 27 27 28 28 28 29 29 30 30 31 31 31 31 30 30 30 30 30 30 29 29 29 29 29 29 29 30 31 31 30 31 33 36 36 35 33
25 26 27 27 28 30 30 30 30 30 31 31 32 32 32 32 32 32 33 33 33 31 31 32 32 32 32 31 31 31 31 32 31 31 30 33 33 33 33 33 36 38 38
28 29 30 31 32 33 33 33 33 34 35 35 35 36 36 35 35 36 36 36 36 35 34 34 33 34 34 34 33 33 33 33 33 33 33 33 33 35 35 34 35 36 39
31 32 33 35 36 36 37 38 39 40 41 41 41 41 41 41 40 40 40 39 39 39 38 38 37 37 36 36 36 35 35 35 35 35 35 35 35 35 36 37 37 36 37
33 36 38 39 40 41 42 43 43 44 44 44 45 44 45 45 45 44 43 42 42 42 41 40 41 38 38 38 38 38 38 38 38 38 38 38 38 37 37 38 39 40 40
39 41 42 43 45 46 46 45 45 46 46 45 45 45 46 46 46 47 46 45 45 44 43 43 43 42 41 40 41 40 39 39 40 40 40 40 41 40 40 39 40 41 43
45 45 47 47 46 46 47 46 46 47 47 47 46 46 45 46 45 44 46 47 46 46 44 45 46 44 44 43 42 42 42 42 41 41 41 41 42 43 43 43 42 42 42
44 45 46 46 46 46 48 48 47 48 48 49 49 49 50 50 49 49 48 44 46 47 46 46 45 47 46 45 45 44 44 43 42 43 43 43 43 43 44 45 45 45 45
45 45 46 47 48 48 50 51 51 51 50 51 51 50 51 50 49 48 49 47 47 46 45 47 47 47 47 47 46 46 48 46 45 45 45 45 44 44 44 45 46 47 47
45 47 48 49 51 51 50 50 49 49 49 50 49 49 49 49 48 48 48 49 49 47 50 49 46 46 46 45 46 47 47 48 47 47 47 47 46 45 45 45 45 47 47
48 49 50 50 50 50 50 50 50 49 50 50 50 50 49 48 48 48 48 48 48 48 45 48 48 50 48 49 49 47 49 51 50 49 49 48 48 47 47 46 46 46 47
50 51 51 51 50 49 48 48 48 50 50 49 48 46 45 43 42 42 42 43 44 45 46 45 47 48 49 47 46 47 49 50 49 49 49 49 49 49 48 48 47 47 47
52 50 50 49 49 48 48 48 47 46 44 42 40 38 37 36 35 35 35 36 38 38 41 42 43 42 44 46 46 47 46 47 48 48 49 49 49 50 50 50 49 49 49
50 50 49 49 48 48 47 45 43 40 37 35 33 32 32 31 32 32 33 33 33 34 35 36 39 40 43 44 44 44 45 46 47 48 49 49 50 51 52 53 53 52 51
49 48 48 46 45 44 42 39 37 35 34 34 34 33 33 33 33 33 32 33 34 35 36 35 37 37 38 40 42 45 46 46 47 48 49 51 50 51 52 53 54 54 54
48 46 44 42 39 38 37 36 34 34 33 33 33 33 34 34 33 33 33 33 33 34 35 38 37 37 39 40 42 43 44 46 46 47 48 49 51 51 52 53 54 55 56
44 42 40 39 40 39 37 36 35 34 33 34 34 33 33 33 33 33 33 33 34 34 35 36 37 38 39 39 40 42 43 44 46 47 49 51 52 54 54 55 56 57 58
42 41 41 41 39 37 36 35 33 33 34 34 34 33 33 33 32 32 33 33 33 34 35 35 35 35 36 36 38 39 41 42 43 44 46 48 50 52 53 54 55 57 58
42 41 40 38 36 36 35 33 34 36 36 36 36 36 35 34 34 35 34 33 33 33 33 33 33 33 33 34 35 36 38 40 41 42 44 45 46 47 49 51 53 55 57
40 39 36 35 35 35 34 35 37 38 38 38 37 37 36 36 35 33 33 33 33 32 32 32 32 33 34 34 34 35 36 36 37 37 40 41 43 45 46 47 49 48 49
37 35 35 35 35 35 35 37 38 37 37 36 35 34 34 34 34 33 32 32 31 31 31 31 32 32 32 32 33 34 34 35 35 35 36 38 38 41 41 42 44 47 49
34 34 34 35 35 36 37 37 37 36 35 35 34 33 33 32 31 31 30 30 29 28 28 28 29 30 31 31 33 34 34 35 35 35 35 37 37 38 39 41 42 43 45
33 33 33 34 37 37 37 36 37 36 34 34 32 31 31 30 29 28 27 26 25 25 25 26 27 29 30 31 32 34 35 34 31 31 31 33 33 34 35 37 39 41 42
32 32 33 36 36 36 35 36 35 33 32 30 29 28 28 26 25 24 22 21 22 22 22 22 21 21 20 20 20 22 25 28 30 31 30 30 30 30 30 32 33 34 35
Wind_Direction
307 307 306 305 305 303 301 298 296 294 291 289 286 284 283 281 279 277 276 275 275 272 270 268 266 264 262 260 258 256 254 254 251 250 246 243 241 238 234 233 233 231 229
306 305 305 305 305 304 302 300 298 295 293 290 287 285 283 282 279 276 276 275 274 271 269 267 265 264 262 260 259 258 256 254 254 250 247 245 244 241 239 236 233 233 231
304 304 303 304 304 304 302 300 298 296 293 292 289 287 284 282 280 277 275 275 273 270 268 267 265 264 262 261 259 258 256 255 254 252 249 247 246 244 240 238 238 235 232
303 303 303 303 302 302 301 299 297 295 293 291 289 287 285 282 280 277 276 274 272 271 268 266 264 263 262 261 260 258 256 255 253 253 251 249 247 244 242 242 240 237 236
303 302 301 301 301 301 299 297 296 294 292 290 289 286 284 282 280 278 275 273 271 270 269 265 264 263 262 261 260 258 257 255 254 253 251 250 249 245 244 243 241 239 239
303 302 301 301 300 299 297 295 293 292 290 289 287 285 283 280 278 276 274 272 270 268 267 266 263 263 261 260 259 258 257 255 254 253 252 251 250 248 246 244 243 242 240
302 302 301 299 298 297 297 295 292 291 289 287 285 284 282 279 276 274 273 271 269 267 265 263 264 263 260 259 259 258 257 257 256 254 252 251 250 249 248 246 245 243 242
300 300 300 298 297 296 295 294 292 291 289 287 285 284 282 280 276 273 270 269 268 266 264 262 261 261 261 260 258 258 257 257 257 255 253 251 250 249 248 248 247 245 244
299 299 298 298 297 297 296 295 293 291 289 287 285 282 281 279 278 275 270 267 267 264 263 262 260 259 258 260 259 257 257 257 257 256 254 252 251 250 249 248 247 246 245
300 300 300 299 298 297 296 295 293 292 290 288 285 281 278 277 276 274 270 270 266 262 263 260 260 259 257 258 258 260 256 256 256 256 255 254 252 250 249 248 247 247 246
302 302 301 300 299 297 296 295 293 291 288 287 285 283 280 277 275 274 271 268 266 264 262 261 259 257 256 257 258 258 257 255 256 256 255 254 252 251 249 248 248 247 247
303 303 302 301 300 298 296 295 294 292 290 288 286 284 282 278 275 273 271 270 267 264 261 260 259 255 257 257 257 258 256 255 256 255 254 253 252 251 250 249 248 248 247
304 304 303 302 300 299 297 295 294 291 291 288 286 284 281 278 275 272 271 268 266 263 263 259 255 257 258 258 257 256 256 256 256 255 253 251 251 250 250 250 249 249 248
305 304 303 303 301 300 299 297 295 294 292 290 287 284 282 279 276 273 270 268 266 263 260 259 256 257 256 257 257 256 256 256 254 253 253 251 250 250 250 250 250 249 249
306 305 304 303 302 301 300 298 297 296 293 292 290 286 283 280 277 274 272 269 267 264 262 259 257 256 255 254 257 257 256 255 253 253 252 251 250 250 249 249 250 249 249
307 307 306 305 304 302 301 300 298 296 294 293 292 289 286 283 280 277 273 270 267 265 264 262 259 257 256 256 256 256 256 255 254 254 252 252 252 251 251 250 250 249 249
309 308 307 306 305 304 303 302 299 297 294 291 289 286 285 283 281 279 275 272 268 265 264 264 262 261 259 258 258 257 257 256 255 255 254 252 252 252 251 251 250 249 248
309 308 308 308 308 306 305 302 299 298 296 293 291 288 286 284 282 279 277 274 272 269 267 266 264 264 262 261 261 260 258 257 256 256 254 253 252 252 252 251 250 250 249
310 309 309 308 307 306 303 301 299 297 296 294 292 290 287 285 283 279 277 275 273 272 270 268 267 266 264 263 263 261 260 259 258 258 257 255 254 253 253 253 252 251 251
311 310 308 307 306 305 304 302 299 299 297 294 292 289 287 285 284 282 279 276 275 274 272 270 269 268 266 265 263 262 261 260 259 258 258 256 255 254 253 253 253 252 251
310 309 308 307 306 306 304 303 300 299 298 294 291 288 286 284 282 281 279 277 275 274 272 270 270 269 267 266 265 264 263 262 260 259 259 257 256 255 254 253 253 253 251
311 310 309 308 307 307 304 304 302 300 298 295 291 288 285 283 282 280 277 275 274 273 272 271 270 269 269 268 266 265 263 262 261 259 259 258 257 256 255 254 252 252 252
311 310 310 310 309 308 307 306 305 303 300 296 293 290 287 283 282 279 277 277 274 272 270 270 270 269 269 268 267 266 264 262 261 261 260 260 258 257 256 254 253 251 251
312 312 312 312 311 310 309 309 308 305 301 298 295 291 288 285 282 280 276 275 274 272 270 269 269 271 271 271 269 267 265 264 263 261 260 261 260 259 257 255 253 253 252
313 314 314 315 314 312 311 310 310 306 303 300 296 292 289 285 282 280 276 273 273 272 272 272 273 274 275 274 271 267 263 262 262 261 259 260 260 260 259 256 254 253 252
314 315 316 317 315 314 313 313 312 310 307 303 299 295 291 287 283 278 272 270 272 273 276 278 278 278 279 279 278 270 265 260 260 261 259 261 260 260 259 256 254 252 251